Time,TemperatureF,DewpointF,PressureIn,WindDirection,WindDirectionDegrees,WindSpeedMPH,WindSpeedGustMPH,Humidity,HourlyPrecipIn,Conditions,Clouds,dailyrainin,SoftwareType,DateUTC
2013-01-13 00:00:00,38.3,33.6,30.09,West,274,0.0,0.0,83,0.00,,,0.00,VWS V14.00,2013-01-13 05:00:00,
2013-01-13 00:15:00,38.3,33.6,30.09,West,274,0.0,0.0,83,0.00,,,0.00,VWS V14.00,2013-01-13 05:15:00,
2013-01-13 00:30:00,38.3,33.6,30.09,West,274,0.0,0.0,83,0.00,,,0.00,VWS V14.00,2013-01-13 05:30:00,
2013-01-13 00:45:00,38.3,33.6,30.09,West,274,0.0,0.0,83,0.00,,,0.00,VWS V14.00,2013-01-13 05:45:00,
2013-01-13 01:00:00,38.3,33.6,30.12,West,274,0.0,0.0,83,0.00,,,0.00,VWS V14.00,2013-01-13 06:00:00,
2013-01-13 01:15:00,38.3,33.6,30.12,West,274,0.0,0.0,83,0.00,,,0.00,VWS V14.00,2013-01-13 06:15:00,
2013-01-13 01:30:00,38.3,33.6,30.12,West,274,0.0,0.0,83,0.00,,,0.00,VWS V14.00,2013-01-13 06:30:00,
2013-01-13 01:45:00,38.3,33.6,30.12,West,274,0.0,0.0,83,0.00,,,0.00,VWS V14.00,2013-01-13 06:45:00,
2013-01-13 02:00:00,38.3,33.6,30.09,West,274,0.0,0.0,83,0.00,,,0.00,VWS V14.00,2013-01-13 07:00:00,
2013-01-13 02:15:00,38.3,33.6,30.09,West,274,0.0,0.0,83,0.00,,,0.00,VWS V14.00,2013-01-13 07:15:00,
2013-01-13 02:30:00,38.3,33.6,30.12,West,274,0.0,0.0,83,0.00,,,0.00,VWS V14.00,2013-01-13 07:30:00,
2013-01-13 02:45:00,38.3,33.6,30.09,West,274,0.0,0.0,83,0.00,,,0.00,VWS V14.00,2013-01-13 07:45:00,
2013-01-13 03:00:00,38.3,33.6,30.09,West,274,0.0,0.0,83,0.00,,,0.00,VWS V14.00,2013-01-13 08:00:00,
2013-01-13 03:15:00,38.3,33.6,30.06,West,274,0.0,0.0,83,0.00,,,0.00,VWS V14.00,2013-01-13 08:15:00,
2013-01-13 03:30:00,38.3,33.6,30.06,West,274,0.0,0.0,83,0.00,,,0.00,VWS V14.00,2013-01-13 08:30:00,
2013-01-13 03:45:00,38.3,33.6,30.06,West,274,0.0,0.0,83,0.00,,,0.00,VWS V14.00,2013-01-13 08:45:00,
2013-01-13 04:00:00,38.3,33.6,30.06,West,274,0.0,0.0,83,0.00,,,0.00,VWS V14.00,2013-01-13 09:00:00,
2013-01-13 04:15:00,38.3,33.6,30.06,West,274,0.0,0.0,83,0.00,,,0.00,VWS V14.00,2013-01-13 09:15:00,
2013-01-13 04:30:00,38.3,33.6,30.03,West,274,0.0,0.0,83,0.00,,,0.00,VWS V14.00,2013-01-13 09:30:00,
2013-01-13 04:45:00,38.3,33.6,30.03,West,274,0.0,0.0,83,0.00,,,0.00,VWS V14.00,2013-01-13 09:45:00,
2013-01-13 05:00:00,38.3,33.6,30.03,West,274,0.0,0.0,83,0.00,,,0.00,VWS V14.00,2013-01-13 10:00:00,
2013-01-13 05:15:00,38.3,33.6,30.03,West,274,0.0,0.0,83,0.00,,,0.00,VWS V14.00,2013-01-13 10:15:00,
2013-01-13 05:30:00,38.3,33.6,30.03,West,274,0.0,0.0,83,0.00,,,0.00,VWS V14.00,2013-01-13 10:30:00,
2013-01-13 05:45:00,38.3,33.6,30.03,West,274,0.0,0.0,83,0.00,,,0.00,VWS V14.00,2013-01-13 10:45:00,
2013-01-13 06:00:00,38.3,33.6,30.03,West,274,0.0,0.0,83,0.00,,,0.00,VWS V14.00,2013-01-13 11:00:00,
2013-01-13 06:15:00,38.3,33.6,30.03,West,274,0.0,0.0,83,0.00,,,0.00,VWS V14.00,2013-01-13 11:15:00,
2013-01-13 06:30:00,38.3,33.6,30.03,West,274,0.0,0.0,83,0.00,,,0.00,VWS V14.00,2013-01-13 11:30:00,
2013-01-13 06:45:00,38.3,33.6,30.03,West,274,0.0,0.0,83,0.00,,,0.00,VWS V14.00,2013-01-13 11:45:00,
2013-01-13 07:00:00,38.3,33.6,30.03,West,274,0.0,0.0,83,0.00,,,0.00,VWS V14.00,2013-01-13 12:00:00,
2013-01-13 07:15:00,38.3,33.6,30.03,West,274,0.0,0.0,83,0.00,,,0.00,VWS V14.00,2013-01-13 12:15:00,
2013-01-13 07:30:00,38.3,33.6,30.03,West,274,0.0,0.0,83,0.00,,,0.00,VWS V14.00,2013-01-13 12:30:00,
2013-01-13 07:45:00,38.3,33.6,30.03,West,274,0.0,0.0,83,0.00,,,0.00,VWS V14.00,2013-01-13 12:45:00,
2013-01-13 08:00:00,38.3,33.6,30.03,West,274,0.0,0.0,83,0.00,,,0.00,VWS V14.00,2013-01-13 13:00:00,
2013-01-13 08:15:00,38.3,33.6,30.03,West,274,0.0,0.0,83,0.00,,,0.00,VWS V14.00,2013-01-13 13:15:00,
2013-01-13 08:30:00,38.3,33.6,30.06,West,274,0.0,0.0,83,0.00,,,0.00,VWS V14.00,2013-01-13 13:30:00,
2013-01-13 08:46:00,38.3,33.6,30.06,West,274,0.0,0.0,83,0.00,,,0.00,VWS V14.00,2013-01-13 13:46:00,
2013-01-13 09:00:00,38.3,33.6,30.06,West,275,0.0,0.0,83,0.00,,,0.00,VWS V14.00,2013-01-13 14:00:00,
2013-01-13 09:15:00,38.3,33.6,30.06,West,274,0.0,0.0,83,0.00,,,0.00,VWS V14.00,2013-01-13 14:15:00,
2013-01-13 09:30:00,38.3,33.6,30.06,West,274,0.0,3.6,83,0.00,,,0.00,VWS V14.00,2013-01-13 14:30:00,
2013-01-13 09:46:00,38.3,33.6,30.06,West,274,0.0,0.0,83,0.00,,,0.00,VWS V14.00,2013-01-13 14:46:00,
2013-01-13 10:01:00,38.3,33.6,30.06,West,275,5.1,5.6,83,0.00,,,0.00,VWS V14.00,2013-01-13 15:01:00,
2013-01-13 10:16:00,38.3,33.6,30.06,West,277,0.0,5.1,83,0.00,,,0.00,VWS V14.00,2013-01-13 15:16:00,
2013-01-13 10:31:00,38.3,33.6,30.06,West,277,0.0,4.5,83,0.00,,,0.00,VWS V14.00,2013-01-13 15:31:00,
2013-01-13 10:45:00,42.3,40.1,30.06,West,277,0.0,0.0,92,0.00,,,0.00,VWS V14.00,2013-01-13 15:45:00,
2013-01-13 11:00:00,43.9,41.7,30.06,West,277,0.0,0.0,92,0.00,,,0.00,VWS V14.00,2013-01-13 16:00:00,
2013-01-13 11:15:00,44.4,42.2,30.06,West,277,0.0,0.0,92,0.00,,,0.00,VWS V14.00,2013-01-13 16:15:00,
2013-01-13 11:30:00,44.4,42.2,30.03,West,278,0.0,0.0,92,0.00,,,0.00,VWS V14.00,2013-01-13 16:30:00,
2013-01-13 11:45:00,44.6,42.1,30.03,West,277,0.0,0.0,91,0.00,,,0.00,VWS V14.00,2013-01-13 16:45:00,
2013-01-13 12:00:00,44.6,42.1,30.03,West,278,0.0,0.0,91,0.00,,,0.00,VWS V14.00,2013-01-13 17:00:00,
2013-01-13 12:15:00,45.7,43.2,30.03,West,278,0.0,0.0,91,0.00,,,0.00,VWS V14.00,2013-01-13 17:15:00,
2013-01-13 12:30:00,45.9,43.4,30.00,West,277,0.0,0.0,91,0.00,,,0.00,VWS V14.00,2013-01-13 17:30:00,
2013-01-13 12:45:00,46.8,44.3,30.00,West,278,0.0,0.0,91,0.00,,,0.00,VWS V14.00,2013-01-13 17:45:00,
2013-01-13 13:00:00,46.9,44.5,30.00,West,278,0.0,0.0,91,0.00,,,0.00,VWS V14.00,2013-01-13 18:00:00,
2013-01-13 13:15:00,47.5,45.0,30.00,West,278,0.0,0.0,91,0.00,,,0.00,VWS V14.00,2013-01-13 18:15:00,
2013-01-13 13:30:00,47.8,45.3,30.00,West,278,0.0,0.0,91,0.00,,,0.00,VWS V14.00,2013-01-13 18:30:00,
2013-01-13 13:45:00,48.9,46.4,30.00,West,278,0.0,0.0,91,0.00,,,0.00,VWS V14.00,2013-01-13 18:45:00,
2013-01-13 14:00:00,49.1,46.6,29.97,West,278,0.0,0.0,91,0.00,,,0.00,VWS V14.00,2013-01-13 19:00:00,
2013-01-13 14:15:00,49.3,46.8,29.97,West,278,0.0,0.0,91,0.00,,,0.00,VWS V14.00,2013-01-13 19:15:00,
2013-01-13 14:30:00,50.2,47.4,29.97,West,278,0.0,0.0,90,0.00,,,0.00,VWS V14.00,2013-01-13 19:30:00,
2013-01-13 14:45:00,50.2,47.4,29.97,West,278,0.0,0.0,90,0.00,,,0.00,VWS V14.00,2013-01-13 19:45:00,
2013-01-13 15:00:00,50.2,47.4,29.97,West,278,0.0,0.0,90,0.00,,,0.00,VWS V14.00,2013-01-13 20:00:00,
2013-01-13 15:15:00,50.2,47.4,29.97,West,278,0.0,0.0,90,0.00,,,0.00,VWS V14.00,2013-01-13 20:15:00,
2013-01-13 15:30:00,50.4,47.5,29.97,West,277,0.0,0.0,90,0.00,,,0.00,VWS V14.00,2013-01-13 20:30:00,
2013-01-13 15:45:00,50.5,47.7,29.97,SSW,202,0.0,7.4,90,0.00,,,0.00,VWS V14.00,2013-01-13 20:45:00,
2013-01-13 16:00:00,50.0,46.9,29.97,ESE,114,6.9,8.9,89,0.00,,,0.00,VWS V14.00,2013-01-13 21:00:00,
2013-01-13 16:15:00,50.4,46.6,29.97,SSE,156,0.0,9.8,87,0.00,,,0.00,VWS V14.00,2013-01-13 21:15:00,
2013-01-13 16:30:00,50.4,46.3,29.97,SSE,168,0.0,8.3,86,0.00,,,0.00,VWS V14.00,2013-01-13 21:30:00,
2013-01-13 16:45:00,50.4,46.3,29.97,SSW,213,0.0,5.6,86,0.00,,,0.00,VWS V14.00,2013-01-13 21:45:00,
2013-01-13 17:00:00,50.2,46.2,29.97,WSW,251,0.0,5.1,86,0.00,,,0.00,VWS V14.00,2013-01-13 22:00:00,
2013-01-13 17:15:00,50.4,46.3,29.97,WNW,285,6.0,6.0,86,0.00,,,0.00,VWS V14.00,2013-01-13 22:15:00,
2013-01-13 17:30:00,50.5,46.5,30.00,SSE,152,3.6,8.3,86,0.00,,,0.00,VWS V14.00,2013-01-13 22:30:00,
2013-01-13 17:45:00,50.5,46.2,30.00,SE,142,0.0,7.4,85,0.00,,,0.00,VWS V14.00,2013-01-13 22:45:00,
2013-01-13 18:00:00,50.0,45.7,29.97,SE,143,0.0,0.0,85,0.00,,,0.00,VWS V14.00,2013-01-13 23:00:00,
2013-01-13 18:15:00,50.2,45.8,29.97,WNW,283,0.0,5.6,85,0.00,,,0.00,VWS V14.00,2013-01-13 23:15:00,
2013-01-13 18:30:00,50.5,46.2,29.97,South,171,0.0,7.4,85,0.00,,,0.00,VWS V14.00,2013-01-13 23:30:00,
2013-01-13 18:45:00,50.7,46.4,29.97,SSW,213,0.0,4.5,85,0.00,,,0.00,VWS V14.00,2013-01-13 23:45:00,
2013-01-13 19:00:00,50.2,45.8,29.97,SSW,212,0.0,0.0,85,0.00,,,0.00,VWS V14.00,2013-01-14 00:00:00,
2013-01-13 19:15:00,50.0,45.7,29.97,SSW,212,0.0,0.0,85,0.00,,,0.00,VWS V14.00,2013-01-14 00:15:00,
2013-01-13 19:30:00,50.2,45.8,29.97,SW,218,0.0,5.1,85,0.00,,,0.00,VWS V14.00,2013-01-14 00:30:00,
2013-01-13 19:45:00,50.2,45.8,30.00,SW,219,0.0,5.1,85,0.00,,,0.00,VWS V14.00,2013-01-14 00:45:00,
2013-01-13 20:00:00,50.2,45.8,29.97,SW,219,0.0,4.7,85,0.00,,,0.00,VWS V14.00,2013-01-14 01:00:00,
2013-01-13 20:15:00,49.5,45.2,29.97,SW,219,0.0,0.0,85,0.00,,,0.00,VWS V14.00,2013-01-14 01:15:00,
2013-01-13 20:30:00,48.6,44.3,29.97,SW,219,0.0,4.0,85,0.00,,,0.00,VWS V14.00,2013-01-14 01:30:00,
2013-01-13 20:45:00,48.0,43.7,29.97,SW,219,0.0,4.5,85,0.00,,,0.00,VWS V14.00,2013-01-14 01:45:00,
2013-01-13 21:00:00,47.7,43.4,29.97,SW,219,0.0,3.6,85,0.00,,,0.00,VWS V14.00,2013-01-14 02:00:00,
2013-01-13 21:15:00,47.7,43.4,29.97,SW,219,0.0,0.0,85,0.00,,,0.00,VWS V14.00,2013-01-14 02:15:00,
2013-01-13 21:30:00,47.7,43.4,29.97,SW,219,0.0,0.0,85,0.00,,,0.00,VWS V14.00,2013-01-14 02:30:00,
2013-01-13 21:45:00,47.7,43.4,29.97,SW,219,0.0,0.0,85,0.00,,-RA,0.00,VWS V14.00,2013-01-14 02:45:00,
2013-01-13 22:00:00,47.7,43.4,29.97,SW,219,0.0,0.0,85,0.00,,-RA,0.00,VWS V14.00,2013-01-14 03:00:00,
2013-01-13 22:15:00,47.7,43.4,29.97,SW,219,0.0,0.0,85,0.00,,-RA,0.00,VWS V14.00,2013-01-14 03:15:00,
2013-01-13 22:30:00,47.7,43.4,29.94,SW,219,0.0,0.0,85,0.00,,-RA,0.00,VWS V14.00,2013-01-14 03:30:00,
2013-01-13 22:45:00,47.7,43.4,29.97,SW,219,0.0,0.0,85,0.00,,,0.00,VWS V14.00,2013-01-14 03:45:00,
2013-01-13 23:00:00,47.7,43.4,29.97,SW,219,0.0,0.0,85,0.00,,,0.00,VWS V14.00,2013-01-14 04:00:00,
2013-01-13 23:15:00,47.7,43.4,29.94,SW,219,0.0,0.0,85,0.00,,,0.00,VWS V14.00,2013-01-14 04:15:00,
2013-01-13 23:30:00,47.7,43.4,29.94,SW,219,0.0,0.0,85,0.00,,,0.00,VWS V14.00,2013-01-14 04:30:00,
2013-01-13 23:45:00,47.7,43.4,29.94,SW,219,0.0,0.0,85,0.00,,,0.00,VWS V14.00,2013-01-14 04:45:00,